Change the Weather History Date:

Thursday, January 23, 2014

  Actual Average (KJAC) Record (KJAC)
Temperature  
Mean Temperature 20 °F -  
Max Temperature 35 °F 25 °F 40 °F (1970)
Min Temperature 6 °F 0 °F -35 °F (1962)
Degree Days  
Heating Degree Days 44    
Moisture  
Dew Point 6 °F    
Average Humidity 58    
Maximum Humidity 100    
Minimum Humidity 21    
Precipitation  
Precipitation 0.00 in - - ()
Sea Level Pressure  
Sea Level Pressure 30.30 in    
Wind  
Wind Speed 7 mph (WNW)    
Max Wind Speed 20 mph    
Max Gust Speed 22 mph    
Visibility 10 miles    
Events      
Averages and records for this station are not official NWS values.
T = Trace of Precipitation, MM = Missing Value Source: NWS Daily Summary

Daily Weather History Graph

Daily Weather History Graph

Search for Another Location

Airport or City:

Trip Planner

Search our weather history database for the weather conditions in past years. The results will help you decide how hot, cold, wet, or windy it might be!

Date:

Astronomy

Jan. 23, 2014 Rise Set
Actual Time 7:43 AM MST 5:18 PM MST
Civil Twilight 7:12 AM MST 5:49 PM MST
Nautical Twilight 6:37 AM MST 6:24 PM MST
Astronomical Twilight 6:03 AM MST 6:58 PM MST
Moon 12:06 AM MST (1/23) 11:06 AM MST (1/23)
Length of Visible Light 10h 36m
Length of Day
9h 34m
Waning Gibbous, 54% of the Moon is Illuminated
Jan 23
Waning Gibbous
Jan 23
Last Quarter
Jan 30
New
Feb 6
First Quarter
Feb 14
Full

Hourly Weather History & Observations

Time (MST) Temp. Windchill Dew Point Humidity Pressure Visibility Wind Dir Wind Speed Gust Speed Precip Events Conditions
12:15 AM 23.0 °F 13.9 °F 21.2 °F 93% 30.21 in 10.0 mi SE 8.1 mph - N/A   Overcast
12:35 AM 21.2 °F 12.6 °F 21.2 °F 100% 30.21 in 10.0 mi SE 6.9 mph - N/A   Overcast
12:55 AM 21.2 °F 10.9 °F 19.4 °F 93% 30.22 in 10.0 mi SE 9.2 mph - N/A   Overcast
1:15 AM 21.2 °F 10.1 °F 17.6 °F 86% 30.22 in 10.0 mi SSE 10.4 mph - N/A   Mostly Cloudy
1:35 AM 19.4 °F 10.4 °F 15.8 °F 86% 30.23 in 10.0 mi SSE 6.9 mph - N/A   Mostly Cloudy
1:55 AM 19.4 °F 11.5 °F 15.8 °F 86% 30.24 in 10.0 mi SSE 5.8 mph - N/A   Overcast
2:15 AM 15.8 °F 6.1 °F 14.0 °F 93% 30.24 in 10.0 mi SSE 6.9 mph - N/A   Mostly Cloudy
2:35 AM 14.0 °F 6.5 °F 10.4 °F 86% 30.25 in 10.0 mi South 4.6 mph - N/A   Scattered Clouds
2:55 AM 12.2 °F 6.1 °F 10.4 °F 92% 30.25 in 10.0 mi SW 3.5 mph - N/A   Clear
3:15 AM 10.4 °F - 8.6 °F 92% 30.25 in 10.0 mi Calm Calm - N/A   Clear
3:35 AM 6.8 °F - 3.2 °F 85% 30.26 in 10.0 mi Calm Calm - N/A   Clear
3:55 AM 6.8 °F - 5.0 °F 92% 30.26 in 10.0 mi Calm Calm - N/A   Clear
4:15 AM 10.4 °F - 6.8 °F 85% 30.27 in 10.0 mi Calm Calm - N/A   Clear
4:30 AM 10.4 °F - 8.6 °F 92% 30.27 in 10.0 mi Calm Calm - N/A   Clear
4:55 AM 10.4 °F - 8.6 °F 92% 30.28 in 10.0 mi Calm Calm - N/A   Scattered Clouds
5:15 AM 10.4 °F - 8.6 °F 92% 30.28 in 10.0 mi Calm Calm - N/A   Scattered Clouds
5:35 AM 8.6 °F 0.1 °F 6.8 °F 92% 30.29 in 10.0 mi NW 4.6 mph - N/A   Scattered Clouds
5:55 AM 10.4 °F 2.2 °F 6.8 °F 85% 30.30 in 10.0 mi WNW 4.6 mph - N/A   Mostly Cloudy
6:15 AM 10.4 °F 4.0 °F 8.6 °F 92% 30.30 in 10.0 mi NW 3.5 mph - N/A   Overcast
6:30 AM 8.6 °F 2.0 °F 5.0 °F 85% 30.31 in 10.0 mi NNW 3.5 mph - N/A   Scattered Clouds
6:55 AM 8.6 °F -2.6 °F 5.0 °F 85% 30.32 in 10.0 mi WNW 6.9 mph - N/A   Clear
7:15 AM 10.4 °F 4.0 °F 6.8 °F 85% 30.32 in 10.0 mi NNW 3.5 mph - N/A   Clear
7:35 AM 8.6 °F -3.7 °F 5.0 °F 85% 30.33 in 10.0 mi WNW 8.1 mph - N/A   Clear
7:55 AM 8.6 °F -3.7 °F 5.0 °F 85% 30.33 in 10.0 mi NW 8.1 mph - N/A   Clear
8:15 AM 8.6 °F -3.7 °F 3.2 °F 79% 30.34 in 10.0 mi WNW 8.1 mph - N/A   Clear
8:35 AM 8.6 °F -4.7 °F 5.0 °F 85% 30.34 in 10.0 mi WNW 9.2 mph - N/A   Clear
8:55 AM 10.4 °F -3.3 °F 5.0 °F 79% 30.35 in 10.0 mi WNW 10.4 mph - N/A   Clear
9:15 AM 10.4 °F -4.1 °F 5.0 °F 79% 30.36 in 10.0 mi WNW 11.5 mph - N/A   Clear
9:35 AM 12.2 °F -0.2 °F 5.0 °F 73% 30.36 in 10.0 mi WNW 9.2 mph - N/A   Clear
9:55 AM 14.0 °F 3.9 °F 6.8 °F 73% 30.37 in 10.0 mi WNW 6.9 mph - N/A   Clear
10:15 AM 15.8 °F 6.1 °F 8.6 °F 73% 30.37 in 10.0 mi WNW 6.9 mph - N/A   Clear
10:35 AM 17.6 °F 12.3 °F 8.6 °F 68% 30.37 in 10.0 mi North 3.5 mph - N/A   Clear
10:55 AM 19.4 °F - 10.4 °F 68% 30.37 in 10.0 mi Calm Calm - N/A   Clear
11:15 AM 21.2 °F - 10.4 °F 63% 30.37 in 10.0 mi Calm Calm - N/A   Clear
11:35 AM 21.2 °F - 10.4 °F 63% 30.36 in 10.0 mi Calm Calm - N/A   Clear
11:55 AM 23.0 °F - 12.2 °F 63% 30.35 in 10.0 mi Calm Calm - N/A   Clear
12:15 PM 26.6 °F - 12.2 °F 55% 30.34 in 10.0 mi Calm Calm - N/A   Clear
12:30 PM 28.4 °F - 14.0 °F 55% 30.34 in 10.0 mi Calm Calm - N/A   Clear
12:55 PM 30.2 °F - 14.0 °F 51% 30.32 in 10.0 mi Calm Calm - N/A   Clear
1:15 PM 30.2 °F - 14.0 °F 51% 30.31 in 10.0 mi Calm Calm - N/A   Clear
1:35 PM 30.2 °F - 14.0 °F 51% 30.30 in 10.0 mi Calm Calm - N/A   Clear
1:55 PM 32.0 °F - 15.8 °F 51% 30.28 in 10.0 mi Calm Calm - N/A   Clear
2:10 PM 32.0 °F - 15.8 °F 51% 30.28 in 10.0 mi Calm Calm - N/A   Clear
2:35 PM 33.8 °F - 14.0 °F 44% 30.28 in 10.0 mi Calm Calm - N/A   Clear
2:55 PM 35.6 °F 29.9 °F 5.0 °F 28% 30.28 in 10.0 mi NNW 6.9 mph - N/A   Clear
3:15 PM 35.6 °F 28.6 °F 3.2 °F 26% 30.28 in 10.0 mi NNW 9.2 mph - N/A   Clear
3:35 PM 35.6 °F 31.7 °F 5.0 °F 28% 30.28 in 10.0 mi WNW 4.6 mph - N/A   Clear
3:55 PM 33.8 °F 25.8 °F 5.0 °F 30% 30.28 in 10.0 mi WNW 10.4 mph - N/A   Clear
4:15 PM 32.0 °F 23.0 °F 3.2 °F 30% 30.28 in 10.0 mi WNW 11.5 mph - N/A   Clear
4:35 PM 32.0 °F 21.6 °F -0.4 °F 25% 30.28 in 10.0 mi West 15.0 mph - N/A   Clear
4:55 PM 32.0 °F 20.5 °F -4.0 °F 21% 30.28 in 10.0 mi West 18.4 mph - N/A   Clear
5:15 PM 30.2 °F 18.9 °F -4.0 °F 23% 30.28 in 10.0 mi WNW 16.1 mph 20.7 mph N/A   Clear
5:35 PM 30.2 °F 22.6 °F -2.2 °F 25% 30.29 in 10.0 mi NW 8.1 mph 13.8 mph N/A   Clear
5:55 PM 28.4 °F 18.5 °F -2.2 °F 27% 30.29 in 10.0 mi NW 11.5 mph - N/A   Clear
6:15 PM 30.2 °F 21.3 °F -4.0 °F 23% 30.30 in 10.0 mi NNW 10.4 mph - N/A   Clear
6:35 PM 26.6 °F 16.2 °F -2.2 °F 29% 30.30 in 10.0 mi NNW 11.5 mph - N/A   Clear
6:55 PM 26.6 °F 15.2 °F -0.4 °F 31% 30.31 in 10.0 mi NNW 13.8 mph - N/A   Clear
7:15 PM 26.6 °F 16.8 °F -0.4 °F 31% 30.31 in 10.0 mi NNW 10.4 mph 20.7 mph N/A   Clear
7:35 PM 26.6 °F 13.8 °F -0.4 °F 31% 30.32 in 10.0 mi NNW 17.3 mph - N/A   Clear
7:55 PM 26.6 °F 16.2 °F -0.4 °F 31% 30.32 in 10.0 mi NW 11.5 mph 16.1 mph N/A   Clear
8:15 PM 26.6 °F 15.7 °F -0.4 °F 31% 30.32 in 10.0 mi NW 12.7 mph - N/A   Clear
8:35 PM 23.0 °F 11.1 °F 1.4 °F 39% 30.32 in 10.0 mi WNW 12.7 mph - N/A   Clear
8:55 PM 24.8 °F 13.4 °F 1.4 °F 36% 30.32 in 10.0 mi WNW 12.7 mph - N/A   Clear
9:15 PM 26.6 °F 14.7 °F -2.2 °F 29% 30.32 in 10.0 mi NW 15.0 mph - N/A   Clear
9:35 PM 24.8 °F 14.6 °F 1.4 °F 36% 30.32 in 10.0 mi WNW 10.4 mph 20.7 mph N/A   Clear
9:55 PM 26.6 °F 14.7 °F -2.2 °F 29% 30.32 in 10.0 mi NW 15.0 mph - N/A   Clear
10:15 PM 28.4 °F 15.4 °F -4.0 °F 25% 30.33 in 10.0 mi NW 19.6 mph - N/A   Clear
10:35 PM 26.6 °F 15.2 °F -2.2 °F 29% 30.34 in 10.0 mi WNW 13.8 mph - N/A   Clear
10:55 PM 28.4 °F 16.6 °F -5.8 °F 23% 30.34 in 10.0 mi NW 16.1 mph 20.7 mph N/A   Clear
11:15 PM 28.4 °F 18.5 °F -5.8 °F 23% 30.34 in 10.0 mi NW 11.5 mph - N/A   Clear
11:35 PM 30.2 °F 19.8 °F -5.8 °F 21% 30.34 in 10.0 mi NW 13.8 mph - N/A   Clear
11:50 PM 28.4 °F 17.5 °F -4.0 °F 25% 30.34 in 10.0 mi WNW 13.8 mph 21.9 mph N/A   Clear